[[{"header":{"parameterUnit":"m.s-1","parameterCategory":1,"la1":30.2991,"la2":30.254,"lo1":-89.0895,"lo2":-89.0444,"dy":0.0017,"dx":0.0017,"nx":28,"ny":28,"refTime":"2024-04-02T21:00:00:Z","depth":0,"parameterNumber":2,"parameterNumberName":"U-component_of_WINDS"},"data":[0,0,0,0,0,0,0,0,0,0,0,0,0,0,0,0,0,0,0,0,0,0,0,0,0,0,0,0,0,0,0,0,0,0,0,0,0,0,0,0,0,0,0,0,0,0,0,0,0,0,0,0,0,0,0,0,0,0,-2.7922,-2.7922,0,-2.7954,-2.7954,-2.7954,-2.791,-2.7909,-2.7907,-2.7906,-2.7941,-2.7943,-2.7945,0,0,0,0,0,0,0,0,0,0,0,0,0,-2.7827,-2.7829,-2.7922,-2.7922,-2.7923,-2.7954,-2.7954,-2.7954,-2.7911,-2.7909,-2.7907,-2.7905,-2.794,-2.7943,-2.7945,0,0,0,0,0,0,0,0,0,0,0,0,0,-2.7864,-2.7829,-2.7922,-2.7905,-2.7903,-2.7954,-2.7954,-2.7955,-2.7911,-2.7909,-2.7906,-2.7904,-2.7939,-2.7942,-2.7946,-2.8015,0,0,-2.7957,-2.7958,0,0,0,0,0,0,0,0,-2.7862,-2.7868,-2.7907,-2.7906,-2.7905,-2.7926,-2.7933,-2.7975,-2.7912,-2.7908,-2.7906,-2.7903,-2.7938,-2.7941,-2.7952,-2.8017,-2.8018,-2.7957,-2.7959,-2.7961,-2.7962,0,0,0,0,0,0,0,-2.786,-2.7866,-2.7935,-2.7907,-2.7906,-2.7896,-2.7899,-2.7941,-2.7936,-2.7908,-2.7905,-2.7909,-2.7937,-2.7949,-2.7953,-2.8019,-2.7957,-2.796,-2.7962,-2.7964,-2.8143,-2.8145,0,0,0,0,0,0,-2.7859,-2.7864,-2.7934,-2.7935,-2.7877,-2.79,-2.7903,-2.7921,-2.7935,-2.7935,-2.7911,-2.7907,-2.7944,-2.7949,-2.7954,-2.8036,-2.7961,-2.7964,-2.7966,-2.814,-2.8143,-2.8146,0,0,0,0,0,0,-2.7857,-2.7865,-2.7932,-2.7899,-2.7907,-2.7904,-2.7925,-2.7923,-2.7935,-2.7938,-2.7937,-2.7925,-2.7942,-2.7949,-2.8,-2.8036,-2.7966,-2.7969,-2.8137,-2.8141,-2.8145,-2.8201,0,0,0,0,0,0,-2.7854,-2.7865,-2.789,-2.79,-2.7909,-2.7977,-2.7927,-2.7925,-2.7941,-2.7936,-2.795,-2.795,-2.7941,-2.7995,-2.8004,-2.804,-2.7972,-2.8134,-2.8139,-2.8144,-2.8195,-2.8206,-2.8215,0,0,0,0,0,-2.7851,-2.7905,-2.7892,-2.79,-2.794,-2.7979,-2.7984,-2.7972,-2.7945,-2.7971,-2.7972,-2.7949,-2.8032,-2.8001,-2.801,-2.8048,-2.8132,-2.8138,-2.8143,-2.8191,-2.8204,-2.8215,0,0,0,0,0,0,-2.79,-2.7906,-2.7891,-2.795,-2.7964,-2.7972,-2.8004,-2.7986,-2.801,-2.8004,-2.7989,-2.7993,-2.8047,-2.8053,-2.8019,-2.8117,-2.8077,-2.8085,-2.811,-2.8122,-2.8132,-2.8129,-2.7975,0,0,0,0,0,-2.7918,-2.7948,-2.7952,-2.8003,-2.8011,-2.8007,-2.8023,-2.8013,-2.8028,-2.8034,-2.8039,-2.8055,-2.8084,-2.8104,-2.8131,-2.8197,-2.8199,-2.8228,-2.8237,-2.8245,-2.8252,-2.8288,-2.83,-2.8165,-2.8165,-2.8165,0,0,-2.7955,-2.7962,-2.7982,-2.8014,-2.8023,-2.8056,-2.8012,-2.8048,-2.8072,-2.804,-2.8088,-2.8093,-2.811,-2.8169,-2.8195,-2.8175,-2.829,-2.8253,-2.8259,-2.8261,-2.8295,-2.8308,-2.8319,-2.8169,-2.8169,-2.8168,0,0,-2.8038,-2.8046,-2.809,-2.8101,-2.8116,-2.8113,-2.8124,-2.8135,-2.8136,-2.8185,-2.8161,-2.819,-2.8241,-2.8254,-2.8267,-2.8358,-2.8338,-2.8367,-2.8417,-2.8452,-2.8463,-2.8472,-2.8504,-2.8515,-2.8374,-2.8375,-2.8375,0,-2.8081,-2.8128,-2.8115,-2.8152,-2.8168,-2.8139,-2.8184,-2.8196,-2.822,-2.8232,-2.8209,-2.8273,-2.8283,-2.8344,-2.8366,-2.8378,-2.839,-2.8365,-2.8462,-2.8471,-2.848,-2.851,-2.8522,-2.8378,-2.8378,-2.8377,-2.8377,0,-2.8181,-2.8214,-2.8248,-2.8271,-2.829,-2.8332,-2.8325,-2.8347,-2.8336,-2.8335,-2.8386,-2.8396,-2.8425,-2.844,-2.8429,-2.85,-2.8488,-2.8464,-2.8424,-2.8496,-2.8524,-2.8536,-2.8383,-2.8382,-2.8381,-2.838,0,0,-2.8294,-2.831,-2.8323,-2.8333,-2.8349,-2.8375,-2.8416,-2.8444,-2.8462,-2.8481,-2.8515,-2.8559,-2.8538,-2.8553,-2.8545,-2.8575,-2.8646,-2.8548,-2.8548,-2.8565,-2.8725,-2.8741,-2.8755,-2.8634,-2.8636,-2.8637,-2.8723,0,-2.8376,-2.8445,-2.8435,-2.8502,-2.8533,-2.8507,-2.8543,-2.8557,-2.8559,-2.8586,-2.8588,-2.862,-2.8589,-2.8598,-2.8628,-2.8631,-2.8678,-2.8625,-2.8665,-2.8667,-2.866,-2.8769,-2.8787,-2.8867,-2.8734,-2.8736,-2.8737,0,-2.8481,-2.8502,-2.8572,-2.8584,-2.8596,-2.8628,-2.8653,-2.868,-2.8696,-2.8695,-2.8713,-2.8699,-2.8741,-2.8702,-2.876,-2.8724,-2.8741,-2.8745,-2.8748,-2.875,-2.8705,-2.8774,-2.8892,-2.8904,-2.8755,-2.8753,-2.8752,0,-2.8555,-2.8602,-2.8649,-2.866,-2.8675,-2.8698,-2.8706,-2.872,-2.8737,-2.876,-2.8772,-2.88,-2.8814,-2.8837,-2.8831,-2.8803,-2.8891,-2.8851,-2.8891,-2.8891,-2.8909,-2.8908,-2.9031,-2.8922,-2.8922,-2.8922,-2.8922,0,-2.8647,-2.8691,-2.8683,-2.8712,-2.8761,-2.875,-2.8798,-2.8803,-2.8816,-2.8847,-2.8828,-2.8857,-2.8849,-2.8878,-2.8875,-2.8923,-2.893,-2.8931,-2.8929,-2.8932,-2.8932,-2.8941,-2.8935,-2.8925,-2.8924,-2.8924,-2.8923,0,-2.8737,-2.8734,-2.8784,-2.8795,-2.8799,-2.8834,-2.8844,-2.8872,-2.8872,-2.8911,-2.892,-2.8921,-2.8955,-2.8952,-2.899,-2.8988,-2.9048,-2.904,-2.9042,-2.9039,-2.908,-2.9076,-2.9212,-2.923,-2.9111,-2.9112,-2.9113,0,-2.8795,-2.8828,-2.8843,-2.8861,-2.887,-2.8901,-2.8919,-2.891,-2.893,-2.8952,-2.8978,-2.901,-2.9034,-2.909,-2.9095,-2.9124,-2.9116,-2.9162,-2.912,-2.9122,-2.9116,-2.9113,-2.9117,-2.917,-2.9171,-2.9172,-2.9173,0,-2.8899,-2.8896,-2.8922,-2.8948,-2.897,-2.899,-2.9008,-2.9025,-2.9019,-2.9042,-2.9076,-2.9095,-2.9134,-2.9166,-2.9195,-2.9204,-2.9188,-2.9187,-2.9197,-2.92,-2.9199,-2.9199,-2.9063,-2.9183,-2.9182,-2.9181,-2.9181,-2.918,-2.8974,-2.9002,-2.9016,-2.9046,-2.906,-2.9078,-2.9104,-2.9109,-2.9136,-2.9167,-2.9161,-2.9199,-2.9216,-2.9252,-2.9264,-2.9295,-2.9278,-2.9294,-2.9298,-2.9302,-2.9306,-2.9195,-2.93,-2.93,-2.93,-2.9299,-2.9299,0,-2.9076,-2.9084,-2.9112,-2.9138,-2.9162,-2.9145,-2.9165,-2.9186,-2.922,-2.9237,-2.9262,-2.9301,-2.9333,-2.9341,-2.9371,-2.9394,-2.9388,-2.9402,-2.94,-2.9402,-2.9319,-2.9306,-2.9407,-2.9407,-2.9407,-2.9407,-2.9407,-2.9407,-2.9131,-2.9177,-2.9177,-2.923,-2.9238,-2.9275,-2.9288,-2.9305,-2.9318,-2.9363,-2.9388,-2.9393,-2.9407,-2.9439,-2.9467,-2.9469,-2.9481,-2.9498,-2.9497,-2.9419,-2.9408,-2.9398,-2.9385,-2.9501,-2.9501,-2.9577,-2.9578,-2.9579]},{"header":{"parameterUnit":"m.s-1","parameterCategory":1,"la1":30.2991,"la2":30.254,"lo1":-89.0895,"lo2":-89.0444,"dy":0.0017,"dx":0.0017,"nx":28,"ny":28,"refTime":"2024-04-02T21:00:00:Z","depth":0,"parameterNumber":3,"parameterNumberName":"V-component_of_WINDS"},"data":[0,0,0,0,0,0,0,0,0,0,0,0,0,0,0,0,0,0,0,0,0,0,0,0,0,0,0,0,0,0,0,0,0,0,0,0,0,0,0,0,0,0,0,0,0,0,0,0,0,0,0,0,0,0,0,0,0,0,2.6504,2.6505,0,2.6611,2.6613,2.6614,2.6696,2.6697,2.6698,2.6699,2.6806,2.6808,2.681,0,0,0,0,0,0,0,0,0,0,0,0,0,2.6367,2.6369,2.6503,2.6505,2.6506,2.6611,2.6613,2.6614,2.6696,2.6697,2.6698,2.6699,2.6805,2.6808,2.681,0,0,0,0,0,0,0,0,0,0,0,0,0,2.6446,2.637,2.6503,2.656,2.6566,2.6611,2.6613,2.6615,2.6696,2.6697,2.6698,2.6699,2.6804,2.6807,2.6811,2.6807,0,0,2.682,2.6822,0,0,0,0,0,0,0,0,2.6441,2.6451,2.655,2.6556,2.6563,2.6642,2.6604,2.6679,2.6696,2.6646,2.6699,2.67,2.675,2.6758,2.6775,2.6812,2.6817,2.6821,2.6823,2.6824,2.6825,0,0,0,0,0,0,0,2.6436,2.6446,2.6546,2.6551,2.6559,2.6579,2.6592,2.6619,2.669,2.6651,2.6657,2.6669,2.6754,2.6772,2.6778,2.6818,2.682,2.6823,2.6825,2.6827,2.686,2.6859,0,0,0,0,0,0,2.6422,2.6441,2.6543,2.6549,2.6504,2.6581,2.6595,2.6615,2.669,2.6703,2.6668,2.6672,2.6766,2.6775,2.6782,2.6786,2.6824,2.6827,2.6829,2.6861,2.686,2.6859,0,0,0,0,0,0,2.6418,2.643,2.6538,2.6497,2.6513,2.6582,2.6604,2.6617,2.6635,2.6703,2.6716,2.6673,2.6767,2.6778,2.6801,2.679,2.6828,2.6831,2.6862,2.6861,2.6859,2.679,0,0,0,0,0,0,2.6414,2.6428,2.6428,2.6497,2.6514,2.6555,2.6603,2.6618,2.6641,2.6648,2.6712,2.6724,2.6769,2.6796,2.6804,2.6795,2.6834,2.6864,2.6862,2.686,2.6793,2.6786,2.678,0,0,0,0,0,2.6409,2.6403,2.6427,2.6439,2.6515,2.6554,2.6565,2.6618,2.6639,2.664,2.6684,2.6722,2.679,2.6798,2.6808,2.68,2.6865,2.6862,2.686,2.6796,2.6788,2.678,0,0,0,0,0,0,2.6329,2.6413,2.6441,2.6457,2.6498,2.6568,2.657,2.6606,2.6642,2.6647,2.671,2.6724,2.6741,2.6772,2.6779,2.6801,2.6832,2.6832,2.678,2.6772,2.6766,2.6758,2.6836,0,0,0,0,0,2.6313,2.6339,2.641,2.6417,2.6437,2.65,2.6519,2.6556,2.6601,2.6619,2.6665,2.6706,2.6738,2.6756,2.6789,2.6798,2.6814,2.6798,2.6791,2.6785,2.6784,2.6794,2.6788,2.6851,2.6851,2.6851,0,0,2.6281,2.633,2.6342,2.6403,2.6439,2.6464,2.6514,2.6537,2.6557,2.6622,2.6648,2.6683,2.6733,2.675,2.676,2.6777,2.677,2.6782,2.6777,2.6779,2.6791,2.6785,2.6779,2.685,2.685,2.685,0,0,2.6236,2.6274,2.6286,2.6322,2.6378,2.642,2.6422,2.6488,2.6514,2.6541,2.6591,2.6615,2.6666,2.6702,2.6726,2.6696,2.6732,2.6704,2.6669,2.6677,2.6672,2.6668,2.6659,2.6655,2.6703,2.6703,2.6702,0,2.6188,2.6229,2.6287,2.6309,2.6335,2.6397,2.6409,2.6441,2.6503,2.6519,2.6538,2.6606,2.6644,2.6671,2.6664,2.6681,2.6687,2.6697,2.6669,2.6665,2.6662,2.6654,2.6651,2.6699,2.6699,2.67,2.67,0,2.6169,2.6196,2.6199,2.626,2.6285,2.6302,2.6363,2.6382,2.6418,2.6458,2.6485,2.6534,2.6578,2.6587,2.6621,2.6619,2.6629,2.6657,2.6689,2.6652,2.6645,2.6643,2.6694,2.6695,2.6696,2.6697,0,0,2.6075,2.617,2.617,2.62,2.6266,2.6288,2.6308,2.6353,2.6369,2.641,2.6429,2.6472,2.65,2.6527,2.6566,2.6573,2.6549,2.6601,2.6603,2.6591,2.6552,2.6532,2.6527,2.6573,2.6573,2.6572,2.6549,0,2.6042,2.6082,2.6136,2.6158,2.6185,2.6245,2.6263,2.6306,2.6344,2.6372,2.6414,2.6445,2.6477,2.6495,2.6505,2.6549,2.6542,2.6552,2.6592,2.6593,2.6579,2.6524,2.6502,2.6477,2.6546,2.6546,2.6546,0,2.6008,2.6048,2.6073,2.614,2.6153,2.6168,2.6215,2.6241,2.629,2.6318,2.635,2.6392,2.6417,2.6445,2.648,2.6486,2.6506,2.653,2.653,2.6537,2.6568,2.653,2.647,2.6466,2.6542,2.6542,2.6542,0,2.594,2.6,2.6024,2.6047,2.6124,2.6134,2.6166,2.6217,2.6242,2.6282,2.6298,2.634,2.6363,2.6395,2.6447,2.6463,2.6477,2.651,2.6502,2.65,2.6503,2.6502,2.6446,2.6512,2.6512,2.6513,2.6513,0,2.5897,2.5911,2.5995,2.6009,2.6027,2.6088,2.6104,2.6142,2.6187,2.621,2.6264,2.6284,2.6352,2.638,2.6422,2.6446,2.6455,2.6478,2.6489,2.6475,2.6472,2.6489,2.6493,2.6512,2.6512,2.6512,2.6512,0,2.5824,2.5881,2.5911,2.5983,2.6001,2.6011,2.6072,2.6089,2.6131,2.616,2.617,2.6236,2.6272,2.6328,2.638,2.6408,2.6426,2.6443,2.641,2.6417,2.6406,2.6407,2.636,2.6358,2.6424,2.6423,2.6423,0,2.5794,2.5807,2.5881,2.5901,2.5932,2.5963,2.5989,2.605,2.6075,2.6134,2.6143,2.6184,2.6221,2.6276,2.6328,2.6369,2.6389,2.637,2.6395,2.6381,2.6391,2.639,2.6393,2.6364,2.6363,2.6362,2.6361,0,2.5736,2.5764,2.5799,2.5845,2.5875,2.5913,2.5954,2.5967,2.6037,2.6062,2.6101,2.613,2.6185,2.6225,2.6274,2.6307,2.6346,2.6353,2.6354,2.6339,2.632,2.6332,2.6395,2.6354,2.6355,2.6355,2.6356,2.6356,2.5685,2.57,2.5755,2.5793,2.5831,2.5869,2.5889,2.5934,2.5968,2.6019,2.6052,2.609,2.6141,2.621,2.6242,2.6272,2.6289,2.6289,2.6289,2.6289,2.6284,2.6314,2.6281,2.6281,2.6281,2.6281,2.6282,0,2.5631,2.567,2.5705,2.5762,2.5792,2.5827,2.5875,2.5898,2.5931,2.5976,2.6011,2.6056,2.6097,2.6152,2.6196,2.621,2.6229,2.622,2.622,2.6228,2.6266,2.6262,2.6204,2.6204,2.6204,2.6204,2.6204,2.6204,2.5607,2.5635,2.5669,2.5716,2.5755,2.5793,2.5818,2.5853,2.589,2.5939,2.5973,2.6009,2.6059,2.6108,2.6146,2.6162,2.6176,2.6161,2.6182,2.6217,2.6224,2.6231,2.6228,2.6163,2.6163,2.6142,2.6141,2.6141]}]]